Weather Roundup
Issued by NWS Chicago, IL

Home | Current Version | Previous Version | Graphics & Text | Print | Product List | Glossary On
Versions: 1 2 3 4 5 6 7 8 9 10 11 12 13 14 15 16 17 18 19 20 21 22 23 24 25 26 27 28 29 30 31 32 33 34 35 36 37 38 39 40 41 42 43 44 45 46 47 48 49 50
000
NZUS59 KLOT 021912
HRRLOT

CHICAGO AREA WEATHER ROUNDUP
NATIONAL WEATHER SERVICE CHICAGO/ROMEOVILLE IL
100 PM CST FRI DEC 02 2016

NOTE: "FAIR" INDICATES FEW OR NO CLOUDS BELOW 12,000 FEET WITH NO
SIGNIFICANT WEATHER AND/OR OBSTRUCTIONS TO VISIBILITY.

* THESE STATIONS ARE NOT UNDER NWS QUALITY CONTROL. THEY ALSO MAY NOT
  REPORT WEATHER SUCH AS PRECIPITATION OR FOG.

ILZ005-006-012>014-019>023-022000-
NORTHEAST ILLINOIS

CITY           SKY/WX    TMP DP  RH WIND       PRES   REMARKS
OHARE          CLOUDY    39  27  62 N12       30.17R
MIDWAY         CLOUDY    40  31  70 W7        30.18R
AURORA         CLOUDY    39  32  76 W10       30.20R
LANSING*       CLOUDY    39  33  80 W9        30.18S
JOLIET*        CLOUDY    41  35  79 W5        30.19S
WAUKEGAN       CLOUDY    37  25  61 NW9       30.17R
DUPAGE AIRPORT CLOUDY    39  30  70 NW10      30.17R
WHEELING       CLOUDY    37  27  67 NW8       30.19R
KANKAKEE*      CLOUDY    40  33  74 W10       30.20S
MORRIS*        CLOUDY    40  33  75 W12       30.19R
LEWIS AIRPORT* DRIZZLE   37  34  91 NW9       30.19R
NORTHERLY ISL    N/A     40  29  65 NW8         N/A
$$

WIZ051-052-058>065-066-070>072-022000-
SOUTHEAST WISCONSIN

CITY           SKY/WX    TMP DP  RH WIND       PRES   REMARKS
MILWAUKEE      CLOUDY    37  23  56 NW12      30.16S
KENOSHA*       CLOUDY    35  24  64 W13       30.18R WCI  26
RACINE*        CLOUDY    36  22  56 W8        30.19R
BURLINGTON     CLOUDY    34  25  68 NW7G17    30.18R WCI  28
WAUKESHA       CLOUDY    32  23  69 NW12      30.17R WCI  23
WEST BEND      CLOUDY    32  25  74 NW10G16   30.16S WCI  24
$$

INZ001>003-010>013-019-020-022000-
NORTHWEST INDIANA

CITY           SKY/WX    TMP DP  RH WIND       PRES   REMARKS
GARY*          CLOUDY    41  32  70 W13       30.18S
MICHIGAN CITY* NOT AVBL
RENSSELAER*    NOT AVBL
VALPARAISO     CLOUDY    40  31  70 W10       30.17S
$$

LMZ740>746-022000-
SOUTHERN LAKE MICHIGAN

STATION/POSITION TIME  SKY/WX   TEMP WIND        PRES    VSBY
                                AIR  DIR/SP/G
                 (UTC)          (F)  (DEG/KT/KT) (MB)    (MI)
HARRISON CRIB    1840            40  330/  9/ 11   N/A
BURNHAM HARBOR   1900            40  330/  8/ 12   N/A
CALUMET HARBOR   1848            40  250/  4/ 10 1021.2R
BURNS HARBOR     1840            41  300/ 16/ 20 1021.7R
MICHIGAN CITY    1840            39  290/ 17/ 19   N/A
$$

ABBREVIATIONS USED IN REMARKS
   TC - TEMPERATURE IN CELSIUS
  WCI - WIND CHILL INDEX
   HX - HEAT INDEX
  VSB - VISIBILITY
$$




USA.gov is the U.S. government's official web portal to all federal, state and local government web resources and services.